Time,TemperatureF,DewpointF,PressureIn,WindDirection,WindDirectionDegrees,WindSpeedMPH,WindSpeedGustMPH,Humidity,HourlyPrecipIn,Conditions,Clouds,dailyrainin,SoftwareType,DateUTC
2013-12-31 00:04:00,37.5,36.5,30.26,NNW,342,1.0,1.0,96,0.00,,,0.00,Wunderground v.1.15,2013-12-31 08:04:00,
2013-12-31 00:09:00,37.5,36.5,30.26,NNW,342,0.0,1.0,96,0.00,,,0.00,Wunderground v.1.15,2013-12-31 08:09:00,
2013-12-31 00:14:00,37.6,36.6,30.25,NNW,342,0.0,0.0,96,0.00,,,0.00,Wunderground v.1.15,2013-12-31 08:14:00,
2013-12-31 00:20:00,37.5,36.5,30.25,NNW,342,0.0,0.0,96,0.00,,,0.00,Wunderground v.1.15,2013-12-31 08:20:00,
2013-12-31 00:25:00,37.5,36.5,30.25,NNW,342,0.0,0.0,96,0.00,,,0.00,Wunderground v.1.15,2013-12-31 08:25:00,
2013-12-31 00:30:00,37.2,36.2,30.25,NNW,342,0.0,0.0,96,0.00,,,0.00,Wunderground v.1.15,2013-12-31 08:30:00,
2013-12-31 00:36:00,37.0,36.0,30.25,NNW,342,0.0,0.0,96,0.00,,,0.00,Wunderground v.1.15,2013-12-31 08:36:00,
2013-12-31 00:42:00,37.0,36.0,30.25,NNW,342,0.0,0.0,96,0.00,,,0.00,Wunderground v.1.15,2013-12-31 08:42:00,
2013-12-31 00:47:00,37.1,36.1,30.25,NNW,342,0.0,0.0,96,0.00,,,0.00,Wunderground v.1.15,2013-12-31 08:47:00,
2013-12-31 00:53:00,37.2,36.2,30.24,NNW,342,0.0,0.0,96,0.00,,,0.00,Wunderground v.1.15,2013-12-31 08:53:00,
2013-12-31 00:59:00,37.3,36.3,30.24,NNW,342,0.0,0.0,96,0.00,,,0.00,Wunderground v.1.15,2013-12-31 08:59:00,
2013-12-31 01:04:00,37.4,36.4,30.24,NNW,341,2.0,3.0,96,0.00,,,0.00,Wunderground v.1.15,2013-12-31 09:04:00,
2013-12-31 01:10:00,37.6,36.6,30.24,NNW,341,0.0,0.0,96,0.00,,,0.00,Wunderground v.1.15,2013-12-31 09:10:00,
2013-12-31 01:15:00,37.7,36.7,30.24,NNW,341,0.0,0.0,96,0.00,,,0.00,Wunderground v.1.15,2013-12-31 09:15:00,
2013-12-31 01:20:00,37.8,36.8,30.25,NNW,341,0.0,0.0,96,0.00,,,0.00,Wunderground v.1.15,2013-12-31 09:20:00,
2013-12-31 01:25:00,37.7,36.7,30.25,NNW,341,0.0,0.0,96,0.00,,,0.00,Wunderground v.1.15,2013-12-31 09:25:00,
2013-12-31 01:30:00,37.7,36.7,30.25,NNW,341,0.0,0.0,96,0.00,,,0.00,Wunderground v.1.15,2013-12-31 09:30:00,
2013-12-31 01:36:00,37.7,36.7,30.25,NNW,341,0.0,0.0,96,0.00,,,0.00,Wunderground v.1.15,2013-12-31 09:36:00,
2013-12-31 01:41:00,37.7,36.7,30.25,NNW,341,0.0,0.0,96,0.00,,,0.00,Wunderground v.1.15,2013-12-31 09:41:00,
2013-12-31 01:47:00,37.8,36.8,30.25,NNW,341,0.0,0.0,96,0.00,,,0.00,Wunderground v.1.15,2013-12-31 09:47:00,
2013-12-31 01:53:00,37.9,36.9,30.25,NNW,341,0.0,0.0,96,0.00,,,0.00,Wunderground v.1.15,2013-12-31 09:53:00,
2013-12-31 01:58:00,38.0,37.0,30.25,NNW,341,0.0,0.0,96,0.00,,,0.00,Wunderground v.1.15,2013-12-31 09:58:00,
2013-12-31 02:03:00,38.0,37.0,30.25,NNW,341,0.0,0.0,96,0.00,,,0.00,Wunderground v.1.15,2013-12-31 10:03:00,
2013-12-31 02:08:00,38.0,37.0,30.24,NNW,341,0.0,0.0,96,0.00,,,0.00,Wunderground v.1.15,2013-12-31 10:08:00,
2013-12-31 02:13:00,38.0,37.0,30.24,NNW,341,0.0,3.0,96,0.00,,,0.00,Wunderground v.1.15,2013-12-31 10:13:00,
2013-12-31 02:18:00,37.9,36.9,30.24,NNW,341,0.0,3.0,96,0.00,,,0.00,Wunderground v.1.15,2013-12-31 10:18:00,
2013-12-31 02:23:00,37.9,36.9,30.24,SSW,202,4.0,5.0,96,0.00,,,0.00,Wunderground v.1.15,2013-12-31 10:23:00,
2013-12-31 02:28:00,37.9,36.9,30.24,SSW,198,2.0,5.0,96,0.00,,,0.00,Wunderground v.1.15,2013-12-31 10:28:00,
2013-12-31 02:33:00,38.0,37.0,30.24,SSW,198,0.0,2.0,96,0.00,,,0.00,Wunderground v.1.15,2013-12-31 10:33:00,
2013-12-31 02:38:00,38.2,37.2,30.25,SSW,198,0.0,2.0,96,0.00,,,0.00,Wunderground v.1.15,2013-12-31 10:38:00,
2013-12-31 02:43:00,38.4,37.6,30.25,SSW,198,0.0,0.0,97,0.00,,,0.00,Wunderground v.1.15,2013-12-31 10:43:00,
2013-12-31 02:48:00,38.5,37.7,30.25,SSW,198,0.0,0.0,97,0.00,,,0.00,Wunderground v.1.15,2013-12-31 10:48:00,
2013-12-31 02:53:00,38.6,37.8,30.25,SSW,198,0.0,0.0,97,0.00,,,0.00,Wunderground v.1.15,2013-12-31 10:53:00,
2013-12-31 02:58:00,38.7,37.9,30.25,SSW,198,0.0,0.0,97,0.00,,,0.00,Wunderground v.1.15,2013-12-31 10:58:00,
2013-12-31 03:03:00,38.8,38.0,30.25,SSW,198,0.0,0.0,97,0.00,,,0.00,Wunderground v.1.15,2013-12-31 11:03:00,
2013-12-31 03:08:00,38.9,38.1,30.25,SSW,198,0.0,0.0,97,0.00,,,0.00,Wunderground v.1.15,2013-12-31 11:08:00,
2013-12-31 03:13:00,38.9,38.1,30.25,SSW,198,0.0,0.0,97,0.00,,,0.00,Wunderground v.1.15,2013-12-31 11:13:00,
2013-12-31 03:18:00,39.0,38.2,30.25,SSW,198,0.0,0.0,97,0.00,,,0.00,Wunderground v.1.15,2013-12-31 11:18:00,
2013-12-31 03:24:00,39.0,38.2,30.25,SSW,198,0.0,0.0,97,0.00,,,0.00,Wunderground v.1.15,2013-12-31 11:24:00,
2013-12-31 03:29:00,39.1,38.3,30.24,SSW,198,0.0,0.0,97,0.00,,,0.00,Wunderground v.1.15,2013-12-31 11:29:00,
2013-12-31 03:34:00,39.1,38.3,30.25,SSW,198,0.0,0.0,97,0.00,,,0.00,Wunderground v.1.15,2013-12-31 11:34:00,
2013-12-31 03:39:00,39.1,38.3,30.25,SSW,198,0.0,0.0,97,0.00,,,0.00,Wunderground v.1.15,2013-12-31 11:39:00,
2013-12-31 03:44:00,39.1,38.3,30.25,SSW,198,0.0,0.0,97,0.00,,,0.00,Wunderground v.1.15,2013-12-31 11:44:00,
2013-12-31 03:49:00,39.1,38.3,30.25,SSW,198,0.0,0.0,97,0.00,,,0.00,Wunderground v.1.15,2013-12-31 11:49:00,
2013-12-31 03:54:00,39.0,38.2,30.25,SSW,198,0.0,0.0,97,0.00,,,0.00,Wunderground v.1.15,2013-12-31 11:54:00,
2013-12-31 03:59:00,38.8,38.0,30.25,SSW,198,0.0,0.0,97,0.00,,,0.00,Wunderground v.1.15,2013-12-31 11:59:00,
2013-12-31 04:04:00,38.7,37.9,30.25,SSW,198,0.0,0.0,97,0.00,,,0.00,Wunderground v.1.15,2013-12-31 12:04:00,
2013-12-31 04:09:00,38.6,37.6,30.25,SSW,198,0.0,0.0,96,0.00,,,0.00,Wunderground v.1.15,2013-12-31 12:09:00,
2013-12-31 04:14:00,38.5,37.5,30.26,SSW,198,0.0,0.0,96,0.00,,,0.00,Wunderground v.1.15,2013-12-31 12:14:00,
2013-12-31 04:19:00,38.4,37.4,30.25,SSW,198,0.0,0.0,96,0.00,,,0.00,Wunderground v.1.15,2013-12-31 12:19:00,
2013-12-31 04:24:00,38.5,37.5,30.25,SSW,198,0.0,0.0,96,0.00,,,0.00,Wunderground v.1.15,2013-12-31 12:24:00,
2013-12-31 04:29:00,38.5,37.5,30.24,SSW,198,0.0,0.0,96,0.00,,,0.00,Wunderground v.1.15,2013-12-31 12:29:00,
2013-12-31 04:34:00,38.6,37.6,30.24,SSW,198,0.0,0.0,96,0.00,,,0.00,Wunderground v.1.15,2013-12-31 12:34:00,
2013-12-31 04:39:00,38.6,37.6,30.24,SSW,198,0.0,0.0,96,0.00,,,0.00,Wunderground v.1.15,2013-12-31 12:39:00,
2013-12-31 04:44:00,38.7,37.7,30.23,SSW,198,0.0,0.0,96,0.00,,,0.00,Wunderground v.1.15,2013-12-31 12:44:00,
2013-12-31 04:49:00,38.7,37.7,30.23,SSW,198,0.0,0.0,96,0.00,,,0.00,Wunderground v.1.15,2013-12-31 12:49:00,
2013-12-31 04:54:00,38.8,37.8,30.23,SSW,198,0.0,0.0,96,0.00,,,0.00,Wunderground v.1.15,2013-12-31 12:54:00,
2013-12-31 04:59:00,38.8,37.8,30.23,SSW,198,0.0,0.0,96,0.00,,,0.00,Wunderground v.1.15,2013-12-31 12:59:00,
2013-12-31 05:04:00,38.8,38.0,30.23,SSW,198,0.0,0.0,97,0.00,,,0.00,Wunderground v.1.15,2013-12-31 13:04:00,
2013-12-31 05:09:00,38.8,38.0,30.23,SSW,198,0.0,0.0,97,0.00,,,0.00,Wunderground v.1.15,2013-12-31 13:09:00,
2013-12-31 05:14:00,38.8,37.8,30.22,SSW,198,0.0,0.0,96,0.00,,,0.00,Wunderground v.1.15,2013-12-31 13:14:00,
2013-12-31 05:19:00,38.8,37.8,30.22,SSW,198,0.0,1.0,96,0.00,,,0.00,Wunderground v.1.15,2013-12-31 13:19:00,
2013-12-31 05:24:00,38.9,38.1,30.23,SSW,198,0.0,0.0,97,0.00,,,0.00,Wunderground v.1.15,2013-12-31 13:24:00,
2013-12-31 05:29:00,39.0,38.2,30.23,SSW,198,0.0,0.0,97,0.00,,,0.00,Wunderground v.1.15,2013-12-31 13:29:00,
2013-12-31 05:34:00,39.2,38.4,30.23,SSW,198,0.0,0.0,97,0.00,,,0.00,Wunderground v.1.15,2013-12-31 13:34:00,
2013-12-31 05:39:00,39.3,38.5,30.23,SSW,198,0.0,0.0,97,0.00,,,0.00,Wunderground v.1.15,2013-12-31 13:39:00,
2013-12-31 05:45:00,39.3,38.5,30.24,SSW,198,0.0,0.0,97,0.00,,,0.00,Wunderground v.1.15,2013-12-31 13:45:00,
2013-12-31 05:50:00,39.5,38.7,30.24,SSW,198,0.0,0.0,97,0.00,,,0.00,Wunderground v.1.15,2013-12-31 13:50:00,
2013-12-31 05:55:00,39.5,38.7,30.23,SSW,198,0.0,0.0,97,0.00,,,0.00,Wunderground v.1.15,2013-12-31 13:55:00,
2013-12-31 06:00:00,39.6,38.8,30.24,SSW,198,0.0,0.0,97,0.00,,,0.00,Wunderground v.1.15,2013-12-31 14:00:00,
2013-12-31 06:05:00,39.6,38.8,30.24,SSW,198,0.0,0.0,97,0.00,,,0.00,Wunderground v.1.15,2013-12-31 14:05:00,
2013-12-31 06:10:00,39.5,38.7,30.24,SSW,198,0.0,0.0,97,0.00,,,0.00,Wunderground v.1.15,2013-12-31 14:10:00,
2013-12-31 06:15:00,39.4,38.6,30.24,SSW,198,0.0,0.0,97,0.00,,,0.00,Wunderground v.1.15,2013-12-31 14:15:00,
2013-12-31 06:20:00,39.3,38.5,30.24,SSW,198,0.0,0.0,97,0.00,,,0.00,Wunderground v.1.15,2013-12-31 14:20:00,
2013-12-31 06:25:00,39.3,38.5,30.24,SSW,198,0.0,0.0,97,0.00,,,0.00,Wunderground v.1.15,2013-12-31 14:25:00,
2013-12-31 06:30:00,39.3,38.5,30.24,SSW,198,0.0,0.0,97,0.00,,,0.00,Wunderground v.1.15,2013-12-31 14:30:00,
2013-12-31 06:35:00,39.4,38.6,30.24,SSW,198,0.0,0.0,97,0.00,,,0.00,Wunderground v.1.15,2013-12-31 14:35:00,
2013-12-31 06:40:00,39.5,38.7,30.24,SSW,198,0.0,0.0,97,0.00,,,0.00,Wunderground v.1.15,2013-12-31 14:40:00,
2013-12-31 06:45:00,39.5,38.7,30.24,SSW,198,0.0,0.0,97,0.00,,,0.00,Wunderground v.1.15,2013-12-31 14:45:00,
2013-12-31 06:50:00,39.5,38.7,30.25,SSW,198,0.0,0.0,97,0.00,,,0.00,Wunderground v.1.15,2013-12-31 14:50:00,
2013-12-31 06:55:00,39.5,38.7,30.25,SSW,198,0.0,0.0,97,0.00,,,0.00,Wunderground v.1.15,2013-12-31 14:55:00,
2013-12-31 07:00:00,39.5,38.7,30.25,SSW,198,0.0,0.0,97,0.00,,,0.00,Wunderground v.1.15,2013-12-31 15:00:00,
2013-12-31 07:05:00,39.5,38.7,30.24,SSW,198,0.0,0.0,97,0.00,,,0.00,Wunderground v.1.15,2013-12-31 15:05:00,
2013-12-31 07:11:00,39.5,38.7,30.24,SSW,198,0.0,0.0,97,0.00,,,0.00,Wunderground v.1.15,2013-12-31 15:11:00,
2013-12-31 07:16:00,39.5,38.7,30.25,SSW,198,0.0,0.0,97,0.00,,,0.00,Wunderground v.1.15,2013-12-31 15:16:00,
2013-12-31 07:21:00,39.6,38.8,30.25,SSW,198,0.0,0.0,97,0.00,,,0.00,Wunderground v.1.15,2013-12-31 15:21:00,
2013-12-31 07:26:00,39.6,38.8,30.25,SSW,198,0.0,1.0,97,0.00,,,0.00,Wunderground v.1.15,2013-12-31 15:26:00,
2013-12-31 07:31:00,39.7,38.9,30.25,SSW,198,0.0,0.0,97,0.00,,,0.00,Wunderground v.1.15,2013-12-31 15:31:00,
2013-12-31 07:36:00,39.7,38.9,30.25,SSW,198,0.0,0.0,97,0.00,,,0.01,Wunderground v.1.15,2013-12-31 15:36:00,
2013-12-31 07:41:00,39.7,38.9,30.25,SSW,198,0.0,0.0,97,0.00,,,0.01,Wunderground v.1.15,2013-12-31 15:41:00,
2013-12-31 07:46:00,39.8,39.0,30.26,SSW,198,0.0,0.0,97,0.00,,,0.01,Wunderground v.1.15,2013-12-31 15:46:00,
2013-12-31 07:51:00,39.9,39.1,30.26,SSW,198,0.0,0.0,97,0.00,,,0.01,Wunderground v.1.15,2013-12-31 15:51:00,
2013-12-31 07:56:00,39.9,39.1,30.25,SSW,198,0.0,0.0,97,0.00,,,0.01,Wunderground v.1.15,2013-12-31 15:56:00,
2013-12-31 08:01:00,39.9,39.1,30.25,SSW,198,0.0,0.0,97,0.00,,,0.01,Wunderground v.1.15,2013-12-31 16:01:00,
2013-12-31 08:06:00,40.0,39.2,30.25,SSW,198,0.0,1.0,97,0.00,,,0.01,Wunderground v.1.15,2013-12-31 16:06:00,
2013-12-31 08:11:00,40.2,39.4,30.25,SSW,198,0.0,0.0,97,0.00,,,0.01,Wunderground v.1.15,2013-12-31 16:11:00,
2013-12-31 08:16:00,40.2,39.4,30.25,SSW,198,0.0,0.0,97,0.00,,,0.01,Wunderground v.1.15,2013-12-31 16:16:00,
2013-12-31 08:21:00,40.4,39.6,30.26,SSW,198,0.0,0.0,97,0.00,,,0.01,Wunderground v.1.15,2013-12-31 16:21:00,
2013-12-31 08:26:00,40.4,39.6,30.26,SSW,198,0.0,0.0,97,0.00,,,0.01,Wunderground v.1.15,2013-12-31 16:26:00,
2013-12-31 08:31:00,40.5,39.7,30.26,SSW,198,0.0,0.0,97,0.00,,,0.01,Wunderground v.1.15,2013-12-31 16:31:00,
2013-12-31 08:36:00,40.6,39.8,30.26,SSW,198,0.0,0.0,97,0.00,,,0.01,Wunderground v.1.15,2013-12-31 16:36:00,
2013-12-31 08:41:00,40.7,39.9,30.27,SSW,198,0.0,0.0,97,0.00,,,0.01,Wunderground v.1.15,2013-12-31 16:41:00,
2013-12-31 08:46:00,40.7,39.9,30.27,SSW,198,0.0,0.0,97,0.00,,,0.01,Wunderground v.1.15,2013-12-31 16:46:00,
2013-12-31 08:51:00,40.9,40.1,30.27,SSW,198,0.0,0.0,97,0.00,,,0.01,Wunderground v.1.15,2013-12-31 16:51:00,
2013-12-31 08:56:00,41.0,40.2,30.27,SSW,198,0.0,1.0,97,0.00,,,0.01,Wunderground v.1.15,2013-12-31 16:56:00,
2013-12-31 09:01:00,41.1,40.3,30.27,SSW,198,0.0,0.0,97,0.00,,,0.01,Wunderground v.1.15,2013-12-31 17:01:00,
2013-12-31 09:06:00,41.3,40.5,30.27,SSW,198,0.0,0.0,97,0.00,,,0.01,Wunderground v.1.15,2013-12-31 17:06:00,
2013-12-31 09:11:00,41.5,40.7,30.27,SSW,198,0.0,0.0,97,0.00,,,0.01,Wunderground v.1.15,2013-12-31 17:11:00,
2013-12-31 09:16:00,41.5,40.7,30.27,SSW,198,0.0,0.0,97,0.00,,,0.01,Wunderground v.1.15,2013-12-31 17:16:00,
2013-12-31 09:21:00,41.6,40.8,30.28,SSW,198,0.0,0.0,97,0.00,,,0.01,Wunderground v.1.15,2013-12-31 17:21:00,
2013-12-31 09:26:00,41.6,40.8,30.28,SSW,198,0.0,0.0,97,0.00,,,0.01,Wunderground v.1.15,2013-12-31 17:26:00,
2013-12-31 09:32:00,41.5,40.7,30.28,SSW,198,0.0,0.0,97,0.00,,,0.01,Wunderground v.1.15,2013-12-31 17:32:00,
2013-12-31 09:37:00,41.5,40.7,30.28,SSW,198,0.0,0.0,97,0.00,,,0.01,Wunderground v.1.15,2013-12-31 17:37:00,
2013-12-31 09:42:00,41.6,40.8,30.29,SSW,198,0.0,0.0,97,0.00,,,0.01,Wunderground v.1.15,2013-12-31 17:42:00,
2013-12-31 09:47:00,41.5,40.7,30.29,SSW,198,0.0,0.0,97,0.00,,,0.01,Wunderground v.1.15,2013-12-31 17:47:00,
2013-12-31 09:52:00,41.5,40.7,30.30,NW,321,0.0,3.0,97,0.00,,,0.01,Wunderground v.1.15,2013-12-31 17:52:00,
2013-12-31 09:57:00,41.4,40.6,30.30,NW,321,0.0,3.0,97,0.00,,,0.01,Wunderground v.1.15,2013-12-31 17:57:00,
2013-12-31 10:02:00,41.4,40.6,30.30,NW,321,0.0,0.0,97,0.00,,,0.01,Wunderground v.1.15,2013-12-31 18:02:00,
2013-12-31 10:07:00,41.5,40.7,30.30,NW,321,0.0,0.0,97,0.00,,,0.01,Wunderground v.1.15,2013-12-31 18:07:00,
2013-12-31 10:12:00,41.6,40.8,30.31,NW,321,0.0,0.0,97,0.00,,,0.01,Wunderground v.1.15,2013-12-31 18:12:00,
2013-12-31 10:17:00,41.7,40.9,30.32,NNW,327,0.0,1.0,97,0.00,,,0.01,Wunderground v.1.15,2013-12-31 18:17:00,
2013-12-31 10:22:00,41.7,40.9,30.31,NNW,331,0.0,0.0,97,0.00,,,0.01,Wunderground v.1.15,2013-12-31 18:22:00,
2013-12-31 10:27:00,41.7,40.9,30.31,NNW,330,0.0,3.0,97,0.00,,,0.01,Wunderground v.1.15,2013-12-31 18:27:00,
2013-12-31 10:32:00,41.6,40.8,30.31,NNW,331,0.0,0.0,97,0.00,,,0.01,Wunderground v.1.15,2013-12-31 18:32:00,
2013-12-31 10:37:00,41.7,40.9,30.31,NNW,331,0.0,0.0,97,0.00,,,0.01,Wunderground v.1.15,2013-12-31 18:37:00,
2013-12-31 10:42:00,41.9,41.1,30.31,NNW,331,0.0,0.0,97,0.00,,,0.01,Wunderground v.1.15,2013-12-31 18:42:00,
2013-12-31 10:47:00,41.9,41.1,30.31,NNW,331,0.0,0.0,97,0.00,,,0.01,Wunderground v.1.15,2013-12-31 18:47:00,
2013-12-31 10:52:00,42.1,41.3,30.31,NNW,331,0.0,0.0,97,0.00,,,0.01,Wunderground v.1.15,2013-12-31 18:52:00,
2013-12-31 10:57:00,42.3,41.5,30.31,NNW,331,0.0,0.0,97,0.00,,,0.01,Wunderground v.1.15,2013-12-31 18:57:00,
2013-12-31 11:02:00,42.7,41.9,30.31,NNW,331,0.0,0.0,97,0.00,,,0.01,Wunderground v.1.15,2013-12-31 19:02:00,
2013-12-31 11:07:00,42.9,42.1,30.31,NNW,330,0.0,0.0,97,0.00,,,0.01,Wunderground v.1.15,2013-12-31 19:07:00,
2013-12-31 11:12:00,43.1,42.3,30.31,NNW,330,0.0,0.0,97,0.00,,,0.01,Wunderground v.1.15,2013-12-31 19:12:00,
2013-12-31 11:17:00,43.1,42.3,30.31,WSW,241,0.0,0.0,97,0.00,,,0.01,Wunderground v.1.15,2013-12-31 19:17:00,
2013-12-31 11:22:00,43.2,42.4,30.31,WSW,241,0.0,0.0,97,0.00,,,0.01,Wunderground v.1.15,2013-12-31 19:22:00,
2013-12-31 11:27:00,43.4,42.6,30.31,WSW,241,0.0,1.0,97,0.00,,,0.01,Wunderground v.1.15,2013-12-31 19:27:00,
2013-12-31 11:32:00,43.6,42.8,30.31,WSW,241,0.0,0.0,97,0.00,,,0.01,Wunderground v.1.15,2013-12-31 19:32:00,
2013-12-31 11:37:00,43.7,42.9,30.31,WSW,241,0.0,0.0,97,0.00,,,0.01,Wunderground v.1.15,2013-12-31 19:37:00,
2013-12-31 11:42:00,43.7,42.6,30.31,WSW,241,0.0,0.0,96,0.00,,,0.01,Wunderground v.1.15,2013-12-31 19:42:00,
2013-12-31 11:47:00,43.6,42.5,30.30,SSW,209,0.0,5.0,96,0.00,,,0.01,Wunderground v.1.15,2013-12-31 19:47:00,
2013-12-31 11:52:00,43.8,42.7,30.30,South,191,3.0,4.0,96,0.00,,,0.01,Wunderground v.1.15,2013-12-31 19:52:00,
2013-12-31 11:57:00,43.9,42.6,30.30,SSW,196,0.0,6.0,95,0.00,,,0.01,Wunderground v.1.15,2013-12-31 19:57:00,
2013-12-31 12:02:00,44.2,42.6,30.30,SSW,204,0.0,1.0,94,0.00,,,0.01,Wunderground v.1.15,2013-12-31 20:02:00,
2013-12-31 12:07:00,44.2,42.6,30.30,SSW,195,3.0,4.0,94,0.00,,,0.01,Wunderground v.1.15,2013-12-31 20:07:00,
2013-12-31 12:12:00,44.1,42.5,30.30,SSW,195,0.0,0.0,94,0.00,,,0.01,Wunderground v.1.15,2013-12-31 20:12:00,
2013-12-31 12:17:00,44.1,42.5,30.30,SSW,195,0.0,0.0,94,0.00,,,0.01,Wunderground v.1.15,2013-12-31 20:17:00,
2013-12-31 12:22:00,44.1,42.2,30.30,SSW,194,0.0,0.0,93,0.00,,,0.01,Wunderground v.1.15,2013-12-31 20:22:00,
2013-12-31 12:27:00,44.2,42.3,30.29,SSW,194,0.0,0.0,93,0.00,,,0.01,Wunderground v.1.15,2013-12-31 20:27:00,
2013-12-31 12:32:00,44.3,42.4,30.29,SSW,194,0.0,0.0,93,0.00,,,0.01,Wunderground v.1.15,2013-12-31 20:32:00,
2013-12-31 12:37:00,44.4,42.5,30.28,SSW,194,0.0,0.0,93,0.00,,,0.01,Wunderground v.1.15,2013-12-31 20:37:00,
2013-12-31 12:42:00,44.7,42.8,30.29,SSW,194,0.0,0.0,93,0.00,,,0.01,Wunderground v.1.15,2013-12-31 20:42:00,
2013-12-31 12:47:00,44.7,42.5,30.29,SSW,194,0.0,0.0,92,0.00,,,0.01,Wunderground v.1.15,2013-12-31 20:47:00,
2013-12-31 12:52:00,44.7,42.5,30.29,SSW,194,0.0,0.0,92,0.00,,,0.01,Wunderground v.1.15,2013-12-31 20:52:00,
2013-12-31 12:57:00,44.9,42.7,30.28,SSW,192,1.0,1.0,92,0.00,,,0.01,Wunderground v.1.15,2013-12-31 20:57:00,
2013-12-31 13:02:00,44.8,42.0,30.29,SSW,193,0.0,0.0,90,0.00,,,0.01,Wunderground v.1.15,2013-12-31 21:02:00,
2013-12-31 13:07:00,44.9,42.4,30.29,SSW,193,0.0,0.0,91,0.00,,,0.01,Wunderground v.1.15,2013-12-31 21:07:00,
2013-12-31 13:12:00,45.0,42.5,30.28,SSW,193,0.0,0.0,91,0.00,,,0.01,Wunderground v.1.15,2013-12-31 21:12:00,
2013-12-31 13:17:00,45.2,42.4,30.28,SSW,192,0.0,1.0,90,0.00,,,0.01,Wunderground v.1.15,2013-12-31 21:17:00,
2013-12-31 13:22:00,45.3,42.5,30.28,South,191,0.0,0.0,90,0.00,,,0.01,Wunderground v.1.15,2013-12-31 21:22:00,
2013-12-31 13:27:00,45.4,42.9,30.28,South,191,0.0,0.0,91,0.00,,,0.01,Wunderground v.1.15,2013-12-31 21:27:00,
2013-12-31 13:32:00,45.6,42.8,30.28,South,191,0.0,1.0,90,0.00,,,0.01,Wunderground v.1.15,2013-12-31 21:32:00,
2013-12-31 13:37:00,45.7,42.6,30.28,South,191,2.0,4.0,89,0.00,,,0.01,Wunderground v.1.15,2013-12-31 21:37:00,
2013-12-31 13:42:00,45.7,42.6,30.28,South,191,0.0,1.0,89,0.00,,,0.01,Wunderground v.1.15,2013-12-31 21:42:00,
2013-12-31 13:47:00,45.6,42.3,30.28,South,191,0.0,1.0,88,0.00,,,0.01,Wunderground v.1.15,2013-12-31 21:47:00,
2013-12-31 13:52:00,45.7,42.3,30.28,South,191,0.0,0.0,88,0.00,,,0.01,Wunderground v.1.15,2013-12-31 21:52:00,
2013-12-31 13:57:00,45.9,42.5,30.28,South,191,0.0,0.0,88,0.00,,,0.01,Wunderground v.1.15,2013-12-31 21:57:00,
2013-12-31 14:02:00,45.9,41.9,30.28,SSW,192,0.0,0.0,86,0.00,,,0.01,Wunderground v.1.15,2013-12-31 22:02:00,
2013-12-31 14:07:00,45.9,41.9,30.28,SSW,192,0.0,0.0,86,0.00,,,0.01,Wunderground v.1.15,2013-12-31 22:07:00,
2013-12-31 14:12:00,45.9,41.6,30.28,South,191,0.0,0.0,85,0.00,,,0.01,Wunderground v.1.15,2013-12-31 22:12:00,
2013-12-31 14:17:00,45.9,41.6,30.28,SSW,192,0.0,0.0,85,0.00,,,0.01,Wunderground v.1.15,2013-12-31 22:17:00,
2013-12-31 14:22:00,46.0,41.7,30.28,South,191,0.0,0.0,85,0.00,,,0.01,Wunderground v.1.15,2013-12-31 22:22:00,
2013-12-31 14:27:00,46.0,41.1,30.28,South,191,0.0,0.0,83,0.00,,,0.01,Wunderground v.1.15,2013-12-31 22:27:00,
2013-12-31 14:33:00,46.1,41.8,30.28,SSW,192,0.0,0.0,85,0.00,,,0.01,Wunderground v.1.15,2013-12-31 22:33:00,
2013-12-31 14:38:00,46.1,40.9,30.28,SSW,196,0.0,2.0,82,0.00,,,0.01,Wunderground v.1.15,2013-12-31 22:38:00,
2013-12-31 14:43:00,46.3,41.4,30.29,SSW,199,1.0,2.0,83,0.00,,,0.01,Wunderground v.1.15,2013-12-31 22:43:00,
2013-12-31 14:48:00,46.2,41.3,30.29,SSW,202,0.0,2.0,83,0.00,,,0.01,Wunderground v.1.15,2013-12-31 22:48:00,
2013-12-31 14:53:00,46.2,41.3,30.29,SSW,202,0.0,0.0,83,0.00,,,0.01,Wunderground v.1.15,2013-12-31 22:53:00,
2013-12-31 14:58:00,46.2,41.6,30.29,SSW,202,0.0,0.0,84,0.00,,,0.01,Wunderground v.1.15,2013-12-31 22:58:00,
2013-12-31 15:03:00,46.1,41.8,30.28,SSW,202,0.0,0.0,85,0.00,,,0.01,Wunderground v.1.15,2013-12-31 23:03:00,
2013-12-31 15:08:00,46.1,41.5,30.29,SSW,202,0.0,0.0,84,0.00,,,0.01,Wunderground v.1.15,2013-12-31 23:08:00,
2013-12-31 15:13:00,46.1,41.2,30.28,SSW,202,0.0,0.0,83,0.00,,,0.01,Wunderground v.1.15,2013-12-31 23:13:00,
2013-12-31 15:18:00,46.1,41.2,30.29,SSW,202,0.0,0.0,83,0.00,,,0.01,Wunderground v.1.15,2013-12-31 23:18:00,
2013-12-31 15:23:00,46.1,40.9,30.29,SSW,202,0.0,0.0,82,0.00,,,0.01,Wunderground v.1.15,2013-12-31 23:23:00,
2013-12-31 15:29:00,46.1,40.9,30.29,SSW,208,0.0,0.0,82,0.00,,,0.01,Wunderground v.1.15,2013-12-31 23:29:00,
2013-12-31 15:34:00,46.1,41.2,30.29,SSW,208,0.0,0.0,83,0.00,,,0.01,Wunderground v.1.15,2013-12-31 23:34:00,
2013-12-31 15:39:00,46.1,41.8,30.30,SSW,208,0.0,0.0,85,0.00,,,0.01,Wunderground v.1.15,2013-12-31 23:39:00,
2013-12-31 15:44:00,46.1,41.5,30.30,SSW,207,0.0,0.0,84,0.00,,,0.01,Wunderground v.1.15,2013-12-31 23:44:00,
2013-12-31 15:49:00,46.1,41.8,30.30,SSW,208,0.0,0.0,85,0.00,,,0.01,Wunderground v.1.15,2013-12-31 23:49:00,
2013-12-31 15:54:00,46.0,41.7,30.30,SSW,207,0.0,0.0,85,0.00,,,0.01,Wunderground v.1.15,2013-12-31 23:54:00,
2013-12-31 15:59:00,46.0,42.0,30.30,SSW,208,0.0,0.0,86,0.00,,,0.01,Wunderground v.1.15,2013-12-31 23:59:00,
2013-12-31 16:04:00,45.9,41.9,30.30,SSW,208,0.0,0.0,86,0.00,,,0.01,Wunderground v.1.15,2014-01-01 00:04:00,
2013-12-31 16:09:00,45.8,42.2,30.30,SSW,207,0.0,0.0,87,0.00,,,0.01,Wunderground v.1.15,2014-01-01 00:09:00,
2013-12-31 16:14:00,45.7,42.1,30.31,SSW,208,0.0,0.0,87,0.00,,,0.01,Wunderground v.1.15,2014-01-01 00:14:00,
2013-12-31 16:19:00,45.6,42.3,30.30,SSW,208,2.0,2.0,88,0.00,,,0.01,Wunderground v.1.15,2014-01-01 00:19:00,
2013-12-31 16:24:00,45.4,42.3,30.30,SSW,208,0.0,2.0,89,0.00,,,0.01,Wunderground v.1.15,2014-01-01 00:24:00,
2013-12-31 16:29:00,45.3,42.5,30.30,SSW,207,0.0,2.0,90,0.00,,,0.01,Wunderground v.1.15,2014-01-01 00:29:00,
2013-12-31 16:34:00,45.2,42.2,30.30,SSW,208,0.0,0.0,89,0.00,,,0.01,Wunderground v.1.15,2014-01-01 00:34:00,
2013-12-31 16:39:00,45.1,42.1,30.30,SSW,208,0.0,0.0,89,0.00,,,0.01,Wunderground v.1.15,2014-01-01 00:39:00,
2013-12-31 16:44:00,45.1,42.1,30.30,SSW,208,0.0,0.0,89,0.00,,,0.01,Wunderground v.1.15,2014-01-01 00:44:00,
2013-12-31 16:49:00,45.0,42.0,30.29,SSW,207,0.0,0.0,89,0.00,,,0.01,Wunderground v.1.15,2014-01-01 00:49:00,
2013-12-31 16:54:00,45.0,42.0,30.29,SSW,208,0.0,0.0,89,0.00,,,0.01,Wunderground v.1.15,2014-01-01 00:54:00,
2013-12-31 16:59:00,45.0,42.0,30.29,SSW,208,0.0,0.0,89,0.00,,,0.01,Wunderground v.1.15,2014-01-01 00:59:00,
2013-12-31 17:04:00,45.0,42.0,30.30,SSW,208,0.0,0.0,89,0.00,,,0.01,Wunderground v.1.15,2014-01-01 01:04:00,
2013-12-31 17:09:00,45.0,42.0,30.29,SSW,208,0.0,0.0,89,0.00,,,0.01,Wunderground v.1.15,2014-01-01 01:09:00,
2013-12-31 17:14:00,45.0,42.0,30.29,SSW,208,0.0,0.0,89,0.00,,,0.01,Wunderground v.1.15,2014-01-01 01:14:00,
2013-12-31 17:19:00,45.0,42.2,30.29,SSW,208,0.0,0.0,90,0.00,,,0.01,Wunderground v.1.15,2014-01-01 01:19:00,
2013-12-31 17:24:00,44.9,42.1,30.29,SSW,207,0.0,3.0,90,0.00,,,0.01,Wunderground v.1.15,2014-01-01 01:24:00,
2013-12-31 17:29:00,44.8,42.0,30.29,SSW,207,0.0,3.0,90,0.00,,,0.01,Wunderground v.1.15,2014-01-01 01:29:00,
2013-12-31 17:34:00,44.7,41.9,30.29,SSW,208,0.0,1.0,90,0.00,,,0.01,Wunderground v.1.15,2014-01-01 01:34:00,
2013-12-31 17:39:00,44.6,41.8,30.30,SSW,208,0.0,1.0,90,0.00,,,0.01,Wunderground v.1.15,2014-01-01 01:39:00,
2013-12-31 17:44:00,44.6,41.8,30.30,SSW,208,0.0,1.0,90,0.00,,,0.01,Wunderground v.1.15,2014-01-01 01:44:00,
2013-12-31 17:49:00,44.5,41.7,30.30,SSW,208,0.0,1.0,90,0.00,,,0.01,Wunderground v.1.15,2014-01-01 01:49:00,
2013-12-31 17:54:00,44.6,41.8,30.31,SSW,208,0.0,0.0,90,0.00,,,0.01,Wunderground v.1.15,2014-01-01 01:54:00,
2013-12-31 17:59:00,44.5,41.7,30.31,SSW,207,0.0,0.0,90,0.00,,,0.01,Wunderground v.1.15,2014-01-01 01:59:00,
2013-12-31 18:04:00,44.6,41.8,30.31,SSW,209,0.0,0.0,90,0.00,,,0.01,Wunderground v.1.15,2014-01-01 02:04:00,
2013-12-31 18:09:00,44.7,41.7,30.32,NNW,338,2.0,3.0,89,0.00,,,0.01,Wunderground v.1.15,2014-01-01 02:09:00,
2013-12-31 18:14:00,44.7,41.7,30.32,NNW,339,0.0,3.0,89,0.00,,,0.01,Wunderground v.1.15,2014-01-01 02:14:00,
2013-12-31 18:19:00,44.7,41.9,30.32,NNW,338,0.0,3.0,90,0.00,,,0.01,Wunderground v.1.15,2014-01-01 02:19:00,
2013-12-31 18:24:00,44.8,42.0,30.32,NNW,339,0.0,0.0,90,0.00,,,0.01,Wunderground v.1.15,2014-01-01 02:24:00,
2013-12-31 18:29:00,44.7,41.9,30.32,NNW,339,0.0,0.0,90,0.00,,,0.01,Wunderground v.1.15,2014-01-01 02:29:00,
2013-12-31 18:34:00,44.6,41.8,30.32,NNW,338,0.0,0.0,90,0.00,,,0.01,Wunderground v.1.15,2014-01-01 02:34:00,
2013-12-31 18:39:00,44.5,41.7,30.32,NNW,339,0.0,0.0,90,0.00,,,0.01,Wunderground v.1.15,2014-01-01 02:39:00,
2013-12-31 18:44:00,44.3,41.8,30.32,NNW,339,0.0,0.0,91,0.00,,,0.01,Wunderground v.1.15,2014-01-01 02:44:00,
2013-12-31 18:50:00,44.3,41.8,30.32,NNW,339,0.0,0.0,91,0.00,,,0.01,Wunderground v.1.15,2014-01-01 02:50:00,
2013-12-31 18:55:00,44.3,41.8,30.32,NNW,339,0.0,0.0,91,0.00,,,0.01,Wunderground v.1.15,2014-01-01 02:55:00,
2013-12-31 19:00:00,44.3,41.8,30.32,NNW,338,0.0,0.0,91,0.00,,,0.01,Wunderground v.1.15,2014-01-01 03:00:00,
2013-12-31 19:05:00,44.3,41.8,30.32,NNW,339,0.0,0.0,91,0.00,,,0.01,Wunderground v.1.15,2014-01-01 03:05:00,
2013-12-31 19:10:00,44.3,41.8,30.32,NNW,339,0.0,0.0,91,0.00,,,0.01,Wunderground v.1.15,2014-01-01 03:10:00,
2013-12-31 19:15:00,44.3,41.8,30.32,NNW,338,0.0,0.0,91,0.00,,,0.01,Wunderground v.1.15,2014-01-01 03:15:00,
2013-12-31 19:20:00,44.2,41.7,30.32,NNW,339,0.0,0.0,91,0.00,,,0.01,Wunderground v.1.15,2014-01-01 03:20:00,
2013-12-31 19:25:00,44.2,41.7,30.32,NNW,338,0.0,0.0,91,0.00,,,0.01,Wunderground v.1.15,2014-01-01 03:25:00,
2013-12-31 19:30:00,44.2,41.7,30.32,NNW,339,0.0,0.0,91,0.00,,,0.01,Wunderground v.1.15,2014-01-01 03:30:00,
2013-12-31 19:35:00,44.1,41.6,30.32,NNW,339,1.0,2.0,91,0.00,,,0.01,Wunderground v.1.15,2014-01-01 03:35:00,
2013-12-31 19:40:00,44.0,41.5,30.32,NNW,338,0.0,1.0,91,0.00,,,0.01,Wunderground v.1.15,2014-01-01 03:40:00,
2013-12-31 19:45:00,43.9,41.4,30.32,NNW,339,0.0,1.0,91,0.00,,,0.01,Wunderground v.1.15,2014-01-01 03:45:00,
2013-12-31 19:50:00,43.7,41.2,30.32,NNW,338,0.0,0.0,91,0.00,,,0.01,Wunderground v.1.15,2014-01-01 03:50:00,
2013-12-31 19:55:00,43.5,41.0,30.32,NNW,339,0.0,0.0,91,0.00,,,0.01,Wunderground v.1.15,2014-01-01 03:55:00,
2013-12-31 20:00:00,43.3,40.8,30.32,NNW,339,0.0,0.0,91,0.00,,,0.01,Wunderground v.1.15,2014-01-01 04:00:00,
2013-12-31 20:05:00,43.1,40.7,30.32,NNW,338,0.0,0.0,91,0.00,,,0.01,Wunderground v.1.15,2014-01-01 04:05:00,
2013-12-31 20:10:00,42.8,40.4,30.32,NNW,339,0.0,0.0,91,0.00,,,0.01,Wunderground v.1.15,2014-01-01 04:10:00,
2013-12-31 20:15:00,42.8,40.6,30.32,NNW,339,0.0,0.0,92,0.00,,,0.01,Wunderground v.1.15,2014-01-01 04:15:00,
2013-12-31 20:20:00,42.9,40.5,30.32,NNW,339,0.0,0.0,91,0.00,,,0.01,Wunderground v.1.15,2014-01-01 04:20:00,
2013-12-31 20:25:00,42.5,40.1,30.32,NNW,338,0.0,0.0,91,0.00,,,0.01,Wunderground v.1.15,2014-01-01 04:25:00,
2013-12-31 20:30:00,42.2,39.8,30.32,NNW,339,0.0,0.0,91,0.00,,,0.01,Wunderground v.1.15,2014-01-01 04:30:00,
2013-12-31 20:35:00,41.9,39.7,30.33,NNW,339,0.0,0.0,92,0.00,,,0.01,Wunderground v.1.15,2014-01-01 04:35:00,
2013-12-31 20:40:00,41.8,39.6,30.32,NNW,338,0.0,0.0,92,0.00,,,0.01,Wunderground v.1.15,2014-01-01 04:40:00,
2013-12-31 20:45:00,41.8,39.6,30.32,NNW,339,0.0,0.0,92,0.00,,,0.01,Wunderground v.1.15,2014-01-01 04:45:00,
2013-12-31 20:50:00,41.8,39.6,30.32,NNW,339,0.0,0.0,92,0.00,,,0.01,Wunderground v.1.15,2014-01-01 04:50:00,
2013-12-31 20:55:00,41.6,39.4,30.33,NNW,338,0.0,0.0,92,0.00,,,0.01,Wunderground v.1.15,2014-01-01 04:55:00,
2013-12-31 21:00:00,41.4,39.3,30.33,NNW,339,0.0,0.0,92,0.00,,,0.01,Wunderground v.1.15,2014-01-01 05:00:00,
2013-12-31 21:01:00,41.4,39.3,30.33,NNW,339,0.0,0.0,92,0.00,,,0.01,Wunderground v.1.15,2014-01-01 05:01:00,
2013-12-31 21:02:00,41.3,39.2,30.33,NNW,339,0.0,0.0,92,0.00,,,0.01,Wunderground v.1.15,2014-01-01 05:02:00,
2013-12-31 21:07:00,41.0,39.1,30.33,NNW,338,0.0,0.0,93,0.00,,,0.01,Wunderground v.1.15,2014-01-01 05:07:00,
2013-12-31 21:12:00,41.0,40.5,30.33,NNW,338,0.0,1.0,98,0.00,,,0.01,Wunderground v.1.15,2014-01-01 05:12:00,
2013-12-31 21:17:00,41.1,39.2,30.33,NNW,339,0.0,1.0,93,0.00,,,0.01,Wunderground v.1.15,2014-01-01 05:17:00,
2013-12-31 21:22:00,41.1,39.2,30.33,NNW,339,0.0,0.0,93,0.00,,,0.01,Wunderground v.1.15,2014-01-01 05:22:00,
2013-12-31 21:27:00,40.9,39.0,30.33,NNW,338,0.0,0.0,93,0.00,,,0.01,Wunderground v.1.15,2014-01-01 05:27:00,
2013-12-31 21:32:00,40.8,38.9,30.33,NNW,339,0.0,0.0,93,0.00,,,0.01,Wunderground v.1.15,2014-01-01 05:32:00,
2013-12-31 21:37:00,40.6,38.7,30.33,NNW,339,0.0,0.0,93,0.00,,,0.01,Wunderground v.1.15,2014-01-01 05:37:00,
2013-12-31 21:41:00,40.6,38.7,30.33,NNW,339,0.0,0.0,93,0.00,,,0.01,Wunderground v.1.15,2014-01-01 05:41:00,
2013-12-31 21:46:00,40.4,38.5,30.33,NNW,339,0.0,0.0,93,0.00,,,0.01,Wunderground v.1.15,2014-01-01 05:46:00,
2013-12-31 21:51:00,40.3,38.7,30.33,NNW,338,0.0,0.0,94,0.00,,,0.01,Wunderground v.1.15,2014-01-01 05:51:00,
2013-12-31 21:56:00,40.2,38.6,30.33,NNW,338,0.0,0.0,94,0.00,,,0.01,Wunderground v.1.15,2014-01-01 05:56:00,
2013-12-31 22:01:00,40.0,38.1,30.33,NNW,338,0.0,0.0,93,0.00,,,0.01,Wunderground v.1.15,2014-01-01 06:01:00,
2013-12-31 22:06:00,40.0,38.4,30.33,NNW,339,0.0,0.0,94,0.00,,,0.01,Wunderground v.1.15,2014-01-01 06:06:00,
2013-12-31 22:11:00,40.2,38.6,30.33,NNW,338,0.0,0.0,94,0.00,,,0.01,Wunderground v.1.15,2014-01-01 06:11:00,
2013-12-31 22:14:00,40.3,38.7,30.33,NNW,339,0.0,0.0,94,0.00,,,0.01,Wunderground v.1.15,2014-01-01 06:14:00,
2013-12-31 22:19:00,40.3,38.7,30.33,NNW,339,0.0,0.0,94,0.00,,,0.01,Wunderground v.1.15,2014-01-01 06:19:00,
2013-12-31 22:24:00,40.1,38.5,30.34,NNW,339,0.0,0.0,94,0.00,,,0.01,Wunderground v.1.15,2014-01-01 06:24:00,
2013-12-31 22:29:00,39.8,38.2,30.34,NNW,338,0.0,0.0,94,0.00,,,0.01,Wunderground v.1.15,2014-01-01 06:29:00,
2013-12-31 22:34:00,39.8,38.2,30.33,NNW,338,0.0,0.0,94,0.00,,,0.01,Wunderground v.1.15,2014-01-01 06:34:00,
2013-12-31 22:35:00,39.8,38.2,30.33,NNW,339,0.0,0.0,94,0.00,,,0.01,Wunderground v.1.15,2014-01-01 06:35:00,
2013-12-31 22:40:00,39.9,38.3,30.33,NNW,338,0.0,0.0,94,0.00,,,0.01,Wunderground v.1.15,2014-01-01 06:40:00,
2013-12-31 22:45:00,39.9,38.3,30.33,NNW,339,0.0,0.0,94,0.00,,,0.01,Wunderground v.1.15,2014-01-01 06:45:00,
2013-12-31 22:50:00,39.8,38.2,30.33,NNW,338,0.0,0.0,94,0.00,,,0.01,Wunderground v.1.15,2014-01-01 06:50:00,
2013-12-31 22:55:00,39.7,38.1,30.34,NNW,338,0.0,0.0,94,0.00,,,0.01,Wunderground v.1.15,2014-01-01 06:55:00,
2013-12-31 23:00:00,39.7,38.1,30.34,NNW,339,0.0,0.0,94,0.00,,,0.01,Wunderground v.1.15,2014-01-01 07:00:00,
2013-12-31 23:05:00,39.6,38.3,30.34,NNW,338,0.0,0.0,95,0.00,,,0.01,Wunderground v.1.15,2014-01-01 07:05:00,
2013-12-31 23:10:00,39.5,38.2,30.34,NNW,338,0.0,0.0,95,0.00,,,0.01,Wunderground v.1.15,2014-01-01 07:10:00,
2013-12-31 23:15:00,39.4,38.1,30.34,NNW,339,0.0,0.0,95,0.00,,,0.01,Wunderground v.1.15,2014-01-01 07:15:00,
2013-12-31 23:20:00,39.3,37.7,30.34,NNW,339,0.0,0.0,94,0.00,,,0.01,Wunderground v.1.15,2014-01-01 07:20:00,
2013-12-31 23:22:00,39.3,37.7,30.34,NNW,339,0.0,0.0,94,0.00,,,0.01,Wunderground v.1.15,2014-01-01 07:22:00,
2013-12-31 23:27:00,39.2,37.9,30.34,NNW,338,0.0,0.0,95,0.00,,,0.01,Wunderground v.1.15,2014-01-01 07:27:00,
2013-12-31 23:32:00,39.1,37.8,30.34,NNW,338,0.0,0.0,95,0.00,,,0.01,Wunderground v.1.15,2014-01-01 07:32:00,
2013-12-31 23:37:00,39.1,37.8,30.34,NNW,339,0.0,0.0,95,0.00,,,0.01,Wunderground v.1.15,2014-01-01 07:37:00,
2013-12-31 23:42:00,39.1,37.8,30.34,NNW,338,0.0,0.0,95,0.00,,,0.01,Wunderground v.1.15,2014-01-01 07:42:00,
2013-12-31 23:47:00,39.0,37.7,30.34,NNW,339,0.0,0.0,95,0.00,,,0.01,Wunderground v.1.15,2014-01-01 07:47:00,
2013-12-31 23:52:00,39.0,37.7,30.34,NNW,339,0.0,0.0,95,0.00,,,0.01,Wunderground v.1.15,2014-01-01 07:52:00,
2013-12-31 23:57:00,38.9,37.6,30.34,NNW,339,0.0,0.0,95,0.00,,,0.01,Wunderground v.1.15,2014-01-01 07:57:00,